Location: Dal�� Lhota
(48.7500°N, 14.0167°E)
Time: 01:21:19
(UTC+00:00)

Vanguard 3 - Pass Details

Date: 04 August 2021
Orbit: 510 x 3260 km, 33.3° (Epoch: 16 September)

Event Time Altitude Azimuth Distance (km) Brightness Sun altitude
Rises 20:55:53 0° 272° (W) 6,560 12.3 -17.8°
Reaches altitude 10° 21:00:31 10° 264° (W) 5,811 11.8 -18.2°
Maximum altitude 21:16:10 34° 209° (SSW) 4,469 10.6 -19.5°
Enters shadow 21:25:40 23° 168° (SSE) 4,982 10.5 -20.3°
Drops below altitude 10° 21:31:46 10° 153° (SSE) 5,758 - -20.7°
Sets 21:36:24 0° 145° (SE) 6,492 - -21.0°
